• In Hungary
  • List of Countries
  • For 7 days
  • Water Temperature
  • Satellite Maps
  • Weather Map
  • News
  • Weather Widgets
  • user-avatar
    Login

    Hourly Weather Konstantyna

    Today, 20 July, Friday

    Time Temperature Precipitation Wind Pressure Humidity
    00:00 +31°C° 0 mm 1 mps 711 mmHg 37%
    01:00 +30°C° 0 mm 1 mps 711 mmHg 36%
    02:00 +30°C° 0 mm 1 mps 710 mmHg 36%
    03:00 +30°C° 0 mm 1 mps 710 mmHg 35%
    04:00 +31°C° 0 mm 1 mps 710 mmHg 34%
    05:00 +31°C° 0 mm 1 mps 710 mmHg 33%
    06:00 +32°C° 0 mm 1 mps 710 mmHg 32%
    07:00 +35°C° 0 mm 2 mps 711 mmHg 28%
    08:00 +37°C° 0 mm 2 mps 711 mmHg 24%
    09:00 +39°C° 0 mm 3 mps 712 mmHg 20%
    10:00 +40°C° 0 mm 3 mps 712 mmHg 18%
    11:00 +43°C° 0 mm 3 mps 712 mmHg 16%
    12:00 +43°C° 0 mm 2 mps 712 mmHg 14%
    13:00 +43°C° 0 mm 3 mps 711 mmHg 15%
    14:00 +43°C° 0 mm 3 mps 711 mmHg 17%
    15:00 +42°C° 0 mm 4 mps 711 mmHg 18%
    16:00 +41°C° 0.1 mm 4 mps 710 mmHg 20%
    17:00 +40°C° 0.1 mm 4 mps 710 mmHg 23%
    18:00 +37°C° 0.1 mm 3 mps 710 mmHg 26%
    19:00 +36°C° 0.4 mm 4 mps 710 mmHg 29%
    20:00 +34°C° 0.4 mm 4 mps 710 mmHg 32%
    21:00 +32°C° 0.4 mm 5 mps 710 mmHg 35%
    22:00 +32°C° 0 mm 4 mps 710 mmHg 33%
    23:00 +31°C° 0 mm 3 mps 710 mmHg 32%

    Tomorrow, 21 July, Saturday

    Time Temperature Precipitation Wind Pressure Humidity
    00:00 +31°C° 0 mm 3 mps 709 mmHg 30%
    01:00 +31°C° 0 mm 3 mps 709 mmHg 30%
    02:00 +31°C° 0 mm 3 mps 709 mmHg 29%
    03:00 +31°C° 0 mm 3 mps 708 mmHg 29%
    04:00 +31°C° 0 mm 3 mps 708 mmHg 30%
    05:00 +31°C° 0 mm 3 mps 709 mmHg 30%
    06:00 +33°C° 0 mm 3 mps 709 mmHg 31%
    07:00 +35°C° 0 mm 3 mps 709 mmHg 28%
    08:00 +37°C° 0 mm 4 mps 710 mmHg 24%
    09:00 +40°C° 0 mm 5 mps 710 mmHg 21%
    10:00 +41°C° 0 mm 5 mps 710 mmHg 20%
    11:00 +42°C° 0 mm 5 mps 711 mmHg 19%
    12:00 +44°C° 0 mm 6 mps 711 mmHg 17%
    13:00 +42°C° 0 mm 6 mps 710 mmHg 19%
    14:00 +42°C° 0 mm 6 mps 710 mmHg 20%
    15:00 +41°C° 0 mm 6 mps 710 mmHg 22%
    16:00 +40°C° 0 mm 5 mps 710 mmHg 26%
    17:00 +37°C° 0 mm 4 mps 710 mmHg 30%
    18:00 +35°C° 0 mm 3 mps 710 mmHg 34%
    19:00 +34°C° 0 mm 3 mps 710 mmHg 38%
    20:00 +32°C° 0 mm 2 mps 710 mmHg 42%
    21:00 +30°C° 0 mm 2 mps 710 mmHg 45%
    22:00 +30°C° 0 mm 2 mps 710 mmHg 45%
    23:00 +30°C° 0 mm 1 mps 710 mmHg 44%

    Day after tomorrow, 22 July, Sunday

    Time Temperature Precipitation Wind Pressure Humidity
    00:00 +29°C° 0 mm 1 mps 710 mmHg 44%
    01:00 +29°C° 0 mm 1 mps 709 mmHg 44%
    02:00 +29°C° 0 mm 2 mps 709 mmHg 44%
    03:00 +28°C° 0 mm 2 mps 709 mmHg 45%
    04:00 +28°C° 0 mm 2 mps 709 mmHg 45%
    05:00 +28°C° 0 mm 2 mps 708 mmHg 46%
    06:00 +28°C° 0 mm 2 mps 708 mmHg 46%
    07:00 +30°C° 0 mm 2 mps 709 mmHg 40%
    08:00 +32°C° 0 mm 2 mps 709 mmHg 35%
    09:00 +34°C° 0 mm 1 mps 709 mmHg 29%
    10:00 +36°C° 0 mm 2 mps 709 mmHg 27%
    11:00 +38°C° 0 mm 2 mps 709 mmHg 25%
    12:00 +39°C° 0 mm 2 mps 709 mmHg 22%
    13:00 +39°C° 0 mm 3 mps 709 mmHg 24%
    14:00 +40°C° 0 mm 4 mps 709 mmHg 25%
    15:00 +40°C° 0 mm 5 mps 709 mmHg 27%
    16:00 +37°C° 0 mm 4 mps 709 mmHg 34%
    17:00 +34°C° 0 mm 4 mps 709 mmHg 41%
    18:00 +31°C° 0 mm 3 mps 709 mmHg 48%
    19:00 +30°C° 0 mm 3 mps 710 mmHg 52%
    20:00 +29°C° 0 mm 2 mps 710 mmHg 56%
    21:00 +28°C° 0 mm 2 mps 710 mmHg 61%
    22:00 +27°C° 0 mm 2 mps 710 mmHg 62%
    23:00 +27°C° 0 mm 1 mps 710 mmHg 64%

    23 July, Monday

    Time Temperature Precipitation Wind Pressure Humidity
    00:00 +26°C° 0 mm 1 mps 710 mmHg 66%
    01:00 +25°C° 0 mm 1 mps 710 mmHg 68%
    02:00 +25°C° 0 mm 1 mps 709 mmHg 70%
    03:00 +24°C° 0 mm 1 mps 709 mmHg 72%
    04:00 +24°C° 0 mm 1 mps 709 mmHg 70%
    05:00 +24°C° 0 mm 1 mps 710 mmHg 68%
    06:00 +24°C° 0 mm 1 mps 710 mmHg 66%
    07:00 +26°C° 0 mm 2 mps 710 mmHg 55%
    08:00 +28°C° 0 mm 2 mps 710 mmHg 45%
    09:00 +29°C° 0 mm 2 mps 711 mmHg 34%
    10:00 +31°C° 0 mm 2 mps 711 mmHg 31%
    11:00 +33°C° 0 mm 3 mps 711 mmHg 28%
    12:00 +34°C° 0 mm 3 mps 711 mmHg 25%
    13:00 +34°C° 0 mm 4 mps 711 mmHg 26%
    14:00 +35°C° 0 mm 4 mps 711 mmHg 26%
    15:00 +35°C° 0 mm 4 mps 710 mmHg 27%
    16:00 +34°C° 0 mm 4 mps 710 mmHg 30%
    17:00 +32°C° 0 mm 4 mps 710 mmHg 34%
    18:00 +30°C° 0 mm 4 mps 710 mmHg 38%
    19:00 +29°C° 0 mm 3 mps 710 mmHg 42%
    20:00 +28°C° 0 mm 2 mps 710 mmHg 47%
    21:00 +26°C° 0 mm 1 mps 710 mmHg 51%
    22:00 +26°C° 0 mm 1 mps 710 mmHg 52%
    23:00 +26°C° 0 mm 1 mps 710 mmHg 53%

    24 July, Tuesday

    Time Temperature Precipitation Wind Pressure Humidity
    00:00 +25°C° 0 mm 1 mps 710 mmHg 54%
    01:00 +25°C° 0 mm 1 mps 709 mmHg 54%
    02:00 +24°C° 0 mm 1 mps 709 mmHg 54%
    03:00 +24°C° 0 mm 1 mps 709 mmHg 53%
    04:00 +25°C° 0 mm 1 mps 709 mmHg 50%
    05:00 +26°C° 0 mm 1 mps 709 mmHg 46%
    06:00 +26°C° 0 mm 1 mps 709 mmHg 43%
    07:00 +28°C° 0 mm 1 mps 710 mmHg 36%
    08:00 +30°C° 0 mm 1 mps 710 mmHg 29%
    09:00 +32°C° 0 mm 1 mps 710 mmHg 22%
    10:00 +35°C° 0 mm 2 mps 710 mmHg 20%
    11:00 +36°C° 0 mm 3 mps 710 mmHg 18%
    12:00 +37°C° 0 mm 3 mps 710 mmHg 16%
    13:00 +38°C° 0 mm 4 mps 710 mmHg 16%
    14:00 +38°C° 0 mm 4 mps 710 mmHg 16%
    15:00 +38°C° 0 mm 4 mps 710 mmHg 17%
    16:00 +37°C° 0 mm 4 mps 709 mmHg 19%
    17:00 +36°C° 0 mm 4 mps 709 mmHg 22%
    18:00 +35°C° 0 mm 4 mps 709 mmHg 24%
    19:00 +33°C° 0 mm 3 mps 709 mmHg 27%
    20:00 +31°C° 0 mm 2 mps 709 mmHg 30%
    21:00 +30°C° 0 mm 1 mps 709 mmHg 32%
    22:00 +29°C° 0 mm 1 mps 709 mmHg 33%
    23:00 +29°C° 0 mm 1 mps 709 mmHg 33%

    25 July, Wednesday

    Time Temperature Precipitation Wind Pressure Humidity
    00:00 +28°C° 0 mm 1 mps 709 mmHg 34%
    01:00 +28°C° 0 mm 1 mps 709 mmHg 34%
    02:00 +26°C° 0 mm 0 mps 709 mmHg 34%
    03:00 +25°C° 0 mm 0 mps 709 mmHg 35%
    04:00 +26°C° 0 mm 0 mps 709 mmHg 34%
    05:00 +26°C° 0 mm 0 mps 709 mmHg 32%
    06:00 +29°C° 0 mm 1 mps 709 mmHg 31%
    07:00 +31°C° 0 mm 1 mps 710 mmHg 28%
    08:00 +32°C° 0 mm 1 mps 710 mmHg 25%
    09:00 +35°C° 0 mm 2 mps 711 mmHg 23%
    10:00 +36°C° 0 mm 2 mps 711 mmHg 22%
    11:00 +37°C° 0 mm 3 mps 711 mmHg 20%
    12:00 +38°C° 0 mm 3 mps 711 mmHg 19%
    13:00 +38°C° 0 mm 4 mps 711 mmHg 19%
    14:00 +38°C° 0 mm 4 mps 711 mmHg 20%
    15:00 +39°C° 0 mm 5 mps 710 mmHg 20%
    16:00 +37°C° 0 mm 5 mps 710 mmHg 22%
    17:00 +35°C° 0 mm 4 mps 710 mmHg 25%
    18:00 +33°C° 0 mm 4 mps 710 mmHg 28%
    19:00 +31°C° 0 mm 3 mps 710 mmHg 32%
    20:00 +29°C° 0 mm 2 mps 710 mmHg 36%
    21:00 +28°C° 0 mm 1 mps 711 mmHg 40%
    22:00 +28°C° 0 mm 1 mps 710 mmHg 41%
    23:00 +27°C° 0 mm 1 mps 710 mmHg 42%
    Show more